Location: Chefe Valiua
(16.5342°S, 37.2214°E)
Time: 01:34:42
(UTC+00:00)

ATLAS 3B R/B - Pass Details

Date: 19 January 2021
Orbit: 1006 x 1189 km, 63.8° (Epoch: 07 March)

Event Time Altitude Azimuth Distance (km) Brightness Sun altitude
Rises 16:17:16 0° 359° (N) 4,017 5.5 -2.3°
Reaches altitude 10° 16:20:15 10° 8° (N) 3,078 4.8 -2.9°
Maximum altitude 16:26:46 34° 70° (ENE) 1,853 3.5 -4.4°
Drops below altitude 10° 16:33:21 10° 132° (SE) 3,123 4.9 -5.8°
Sets 16:36:22 0° 140° (SE) 4,083 5.6 -6.5°
